Lid_Strength_Index
1 1 1 1 1 -0 -0 -0 -0 -0 -0 -1 -1 -1 -1 -1 -0 1 5 3 5 7 7 5 5 8 8 8 11 9 9 8 11 12 13 13 14 13 14 13 14 15 16 18 15 16 19 10 11 14 12 12 12 13
2 2 2 2 1 1 -0 -0 -0 -0 -0 -0 -1 -1 -1 -1 -1 1 5 3 3 7 7 4 4 4 5 6 7 9 9 9 9 11 12 13 15 15 14 17 11 14 14 15 13 15 11 11 11 11 11 11 12 13
1 1 2 2 2 1 1 -0 -0 -0 -0 -0 -1 -1 -1 -1 -1 1 4 3 4 7 8 8 8 3 2 3 3 8 9 8 9 8 11 11 14 12 14 15 12 12 10 13 12 12 12 11 11 11 11 11 12 12
1 1 1 2 2 2 1 1 -0 -0 -0 -0 -1 -1 -1 -1 -1 0 3 3 5 6 12 10 3 5 3 2 3 4 5 6 7 8 11 11 13 10 15 11 12 12 11 12 14 12 11 11 11 11 12 12 12 13
2 1 1 2 2 2 2 2 1 0 -0 -0 -1 -1 -1 -1 -1 1 2 3 3 7 11 10 4 3 2 2 3 3 4 5 7 9 9 11 10 9 9 10 11 11 12 12 14 10 11 12 13 11 13 13 13 13
1 1 1 1 1 2 2 2 1 0 -0 -0 -1 -1 -1 -1 -1 2 6 3 2 4 8 10 5 5 3 3 4 4 4 5 6 8 9 9 8 9 13 13 11 10 11 11 12 11 12 13 13 12 12 12 12 12
2 1 1 2 2 2 2 2 2 1 0 -0 -1 -1 -1 -1 0 4 7 4 1 3 7 9 10 5 3 4 5 5 4 5 6 8 10 10 10 10 16 17 11 13 13 11 11 12 13 13 14 12 12 12 11 13
2 1 2 2 2 2 2 2 2 1 1 0 -1 -1 -1 -1 -0 3 2 -0 1 4 5 10 10 8 4 7 8 5 7 6 7 8 10 11 12 14 14 13 14 12 12 12 11 11 11 12 12 13 12 12 13 13
2 2 2 2 2 2 2 2 1 1 1 -0 -1 -1 0 2 5 4 -1 -0 1 4 9 10 12 12 5 7 7 7 7 10 8 11 11 11 14 14 12 12 13 11 11 11 12 12 12 12 12 12 12 12 12 13
2 2 2 2 2 2 2 1 1 1 0 -1 1 3 6 3 -1 -0 2 6 6 7 6 12 10 10 7 9 10 10 10 11 12 11 10 13 14 11 11 11 10 10 11 11 13 12 12 12 12 12 11 11 12 12
2 2 2 2 2 2 2 1 1 0 -0 2 5 6 3 -0 3 7 8 9 8 9 8 10 10 10 7 10 11 10 12 12 15 13 12 14 15 12 10 11 11 10 11 11 11 11 10 10 11 10 11 10 11 12
1 1 2 2 2 1 1 1 0 2 3 3 2 1 2 5 7 9 10 9 10 11 11 10 10 9 9 7 10 10 12 13 16 13 15 18 14 11 11 11 11 10 11 11 10 10 11 10 9 9 10 11 12 12
1 1 0 0 0 0 0 0 0 -0 1 4 5 7 9 9 18 15 16 14 16 12 12 11 12 10 9 9 12 12 15 16 13 17 17 15 13 11 11 11 11 10 10 11 11 11 11 11 10 10 12 12 13 14
1 1 1 1 1 1 0 0 0 2 5 10 11 18 15 19 16 16 14 15 13 13 11 12 13 11 12 12 14 15 16 14 19 20 16 17 13 12 12 11 11 11 10 10 10 11 13 10 11 12 13 13 14 15
1 1 1 1 1 1 1 1 1 4 8 11 12 17 15 12 12 9 11 13 13 10 10 12 12 11 12 14 14 15 17 19 17 18 18 11 13 10 10 10 11 11 15 16 16 13 10 12 12 15 14 13 14 15
2 2 4 2 1 1 1 2 4 6 9 10 10 11 10 10 10 10 10 15 11 12 11 11 13 15 16 15 17 19 17 18 18 15 11 13 12 11 10 11 11 11 11 11 11 11 12 13 15 16 14 15 15 15
4 7 3 2 2 3 3 7 9 10 11 11 11 9 9 10 11 11 15 13 12 11 14 13 17 17 14 17 16 14 18 19 13 12 10 10 11 11 11 11 12 13 14 14 13 14 16 16 15 16 16 17 15 15
8 6 3 3 4 5 8 8 9 10 10 10 12 11 11 12 12 13 12 11 9 11 12 13 12 15 20 17 15 13 12 12 11 11 10 10 10 11 11 12 12 14 17 17 17 18 18 17 16 16 16 15 16 16
6 5 3 3 5 8 10 10 9 12 11 10 10 10 11 12 10 10 11 9 9 9 10 12 13 13 13 12 12 12 12 12 12 12 11 10 10 11 11 12 13 15 17 18 15 16 15 14 15 15 15 15 16 16
4 4 4 4 5 9 10 11 9 11 12 11 11 11 13 12 12 12 11 10 9 10 11 12 12 11 11 11 13 10 11 11 11 12 12 11 10 11 12 12 13 14 15 14 15 15 14 15 14 14 15 15 16 16
7 7 6 7 9 10 11 12 12 11 11 12 11 12 12 11 12 13 12 11 11 10 11 10 11 10 9 9 9 10 12 12 12 11 12 12 11 11 11 11 12 13 15 16 16 16 16 15 15 14 15 15 15 15
9 6 10 9 11 11 12 12 11 11 12 12 12 12 15 15 16 15 12 13 11 11 10 10 10 10 9 10 9 9 10 9 10 11 11 11 11 12 12 12 12 13 14 15 14 16 15 14 14 15 16 16 16 15
8 9 12 12 14 15 15 12 13 12 16 15 13 14 16 18 16 11 12 12 12 10 10 10 9 9 9 9 9 9 10 10 11 11 11 10 10 11 11 11 11 12 13 14 14 14 15 14 15 16 15 16 16 16
8 13 17 17 15 20 16 17 12 13 14 15 15 17 17 18 13 14 13 12 12 10 10 9 9 10 10 10 10 10 10 9 10 11 10 10 11 11 11 11 11 11 11 12 12 14 14 15 15 15 15 16 16 16
15 17 18 21 17 19 20 20 19 17 20 17 17 15 18 12 14 16 14 13 12 12 11 10 9 9 11 11 11 11 10 9 10 11 10 10 11 11 11 11 11 11 10 14 18 19 17 15 15 15 16 16 16 16
19 18 19 20 19 18 18 21 22 20 21 19 19 18 14 15 20 16 13 14 12 12 12 11 11 10 11 10 11 11 11 10 9 11 11 10 10 11 11 12 12 12 12 12 14 16 16 15 15 15 16 16 16 17
18 20 14 11 12 14 19 19 16 19 22 21 21 23 23 21 16 15 13 12 13 11 10 10 10 10 10 11 11 11 11 11 11 11 11 12 12 12 11 11 11 12 13 12 12 13 14 14 14 15 15 15 16 16
14 16 19 17 17 17 22 22 22 18 16 13 18 23 22 19 16 13 12 11 11 10 10 10 10 10 10 11 11 11 12 12 12 13 15 17 18 17 15 14 12 11 11 13 12 12 12 12 13 14 15 16 17 17
16 17 17 21 21 17 15 18 15 13 11 12 18 15 14 14 15 13 12 11 10 10 11 11 11 10 11 11 11 11 11 12 15 19 21 22 22 17 17 15 13 11 10 11 11 11 11 12 13 15 16 18 18 18
17 16 20 22 20 17 14 13 13 12 11 11 11 11 12 14 14 14 13 12 12 12 12 11 10 10 11 11 12 13 16 19 18 17 19 20 18 21 15 17 14 14 14 15 15 15 14 16 16 18 19 19 20 21
16 20 21 18 14 13 12 11 11 11 11 11 10 12 14 17 17 16 16 16 15 13 13 13 12 12 13 12 13 17 17 17 16 15 15 17 18 19 17 17 16 15 16 16 17 17 18 18 19 20 21 21 22 22
19 18 20 20 16 12 13 15 12 11 17 18 19 18 17 18 21 22 21 21 21 21 21 22 18 18 18 17 17 16 14 16 16 17 16 16 16 16 16 17 17 16 17 18 18 19 19 20 20 21 22 23 23 24
14 12 17 19 15 16 17 21 20 19 20 21 19 22 21 19 19 22 21 24 22 22 22 21 21 20 19 18 17 15 15 15 15 13 14 15 16 16 17 17 18 18 18 19 20 20 21 21 22 23 24 25 26 27